Terminal Aerodrome Forecast
Issued by NWS

Home | Current Version | Previous Version | Graphics & Text | Print | Product List | Glossary On
Versions: 1 2 3 4 5 6 7 8 9 10 11 12 13 14 15 16 17 18 19 20 21 22 23 24 25 26 27 28 29 30 31 32 33 34 35 36 37 38 39 40 41 42 43 44 45 46 47 48 49 50
450
FTUS43 KLOT 282056 AAA
TAFGYY
TAF AMD
KGYY 282056Z 2821/2918 34012KT P6SM SCT005 OVC015
      TEMPO 2821/2823 BKN005
     FM282300 01010KT P6SM SCT008 BKN015
     FM290300 02009KT P6SM BKN025 BKN180
     FM291500 08012G18KT P6SM SCT025 BKN150=

USA.gov is the U.S. government's official web portal to all federal, state and local government web resources and services.